Location: Saint Peter Port
(49.4500°N, 2.5330°W)
Time: 17:13:11
(UTC+01:00)

OTV 5 (USA 277) - Visible Passes

Search period start: 21 April 2019 00:00
Search period end: 01 May 2019 00:00
Orbit: 310 x 326 km, 54.5° (Epoch: 20 April)

Date Brightness Start Highest point End Pass type
(mag) Time Alt. Az. Time Alt. Az. Time Alt. Az.
21 Apr ? 03:32:26 29° ENE 03:32:26 29° ENE 03:34:05 10° E visible
21 Apr ? 05:03:22 10° WNW 05:05:48 32° SW 05:08:14 10° SSE visible
22 Apr ? 03:47:42 25° ESE 03:47:42 25° ESE 03:49:00 10° ESE visible
22 Apr ? 05:18:42 10° W 05:20:19 15° SW 05:21:57 10° S visible
23 Apr ? 21:55:10 10° SSW 21:56:27 22° SSW 21:56:27 22° SSW visible
24 Apr ? 22:09:40 10° WSW 22:12:23 82° SSE 22:12:48 59° ENE visible
25 Apr ? 20:50:40 10° SSW 20:52:59 24° SE 20:55:17 10° E visible
25 Apr ? 22:24:29 10° W 22:27:10 51° NNW 22:28:18 28° NE visible
26 Apr ? 21:04:54 10° SW 21:07:35 55° SSE 21:10:16 10° ENE visible
26 Apr ? 22:39:30 10° W 22:42:02 33° NNW 22:43:12 22° NE visible
27 Apr ? 21:19:35 10° WSW 21:22:19 70° NNW 21:25:02 10° ENE visible
27 Apr ? 22:54:33 10° WNW 22:56:57 27° N 22:57:45 23° NNE visible
28 Apr ? 21:34:31 10° W 21:37:08 40° NNW 21:39:45 10° NE visible
28 Apr ? 23:09:31 10° WNW 23:11:54 26° N 23:12:05 26° N visible
29 Apr ? 21:49:34 10° WNW 21:52:02 29° N 21:54:29 10° NE visible
29 Apr ? 23:24:21 10° NW 23:26:17 27° NNW 23:26:17 27° NNW visible
30 Apr ? 22:04:34 10° WNW 22:06:58 26° N 22:09:21 10° ENE visible
30 Apr ? 23:39:06 10° NW 23:40:25 23° NW 23:40:25 23° NW visible
